STARLINK-2424, 47834

Orbit data source: Space-Track

STARLINK-2424, 47834 is a payload satellite owned by SpaceX/Seattle (US) in LEO that was launched on Thu, 11 Mar 2021 UTC via an FALCON 9 launch vehicle from the Air Force Eastern Test Range (AFETR). Payload-class satellites include a variety of spacecraft equipped with specific instruments for various scientific and technological missions. These include communications satellites like Starlink; space stations such as the ISS; scientific satellites like the Hubble; Earth observation satellites from companies like Planet Labs, Umbra, and HawkEye 360; GPS; miniature CubeSats for education and research; and military/defense satellites.

Loading next visibility...
Identifier
47834, 2021-018AZ
Orbit
LEO
Country
Flag of USUS
Related business
Manufacturer
SpaceX/Seattle
Mission
Operational Commercial Communications
Bus & Motor
STARLINK, Unknown motor
Mass
260 kg wet, ~248 kg dry
Launch date (UTC)
2021-03-11 (5 years ago)
Launch vehicle
FALCON 9
Launch site
Air Force Eastern Test Range (AFETR)
Object type
Payload
Rocket body
Debris
Shape & HBR
Box + 1 Pan, 10.1 m
Radar Cross Section
13.562 m², Large (>1 m²)

Expand to show TLE details & history
Last TLE update: 13 hours ago

TLE from 13 hours ago
0 STARLINK-2424
1 47834U 21018AZ  26119.97995905  .00003875  00000-0  13654-3 0  9995
2 47834  53.1618   6.6145 0001193  93.5599 266.5539 15.31702833284607
Epoch: 2026-04-29T23:31Z
TLE epoch observation values (Epoch: 2026-04-29T23:31:08.461Z)
Latitude
-0.00004°
Longitude
155.89608°
Altitude
471.681 km
Speed
7.631 km/s
True Right ascension
00h 26m 27s
True Declination
0° 00' 00"
Sunlit
Object was in daylight at epoch
Visualization orbit readout
Latitude
Unknown
Longitude
Unknown
Altitude
Unknown
Speed
Unknown
Apparent Right ascension
Unknown
Apparent Declination
Unknown
Sunlit
N/A
Visualization observer readout
Local Sidereal Time
20:14:03
Azimuth
Unknown
Elevation
Unknown
Doppler factor
Unknown
Orbital elements
Apogee altitude
471.805 km
Perigee altitude
470.171 km
Semi-major axis
6,849.125 km
Eccentricity
0.00012
Inclination
53.1618°
RAAN
6.6145°
Arg. of periapsis
93.5599°
True anomaly
266.54025°
Mean anomaly
266.5539°
Eccentric anomaly
266.54708°
Mean motion
3.82905 °/min
Orbital period
94.02 mins
BSTAR
0.00013654
Loading maneuver chart data...
Computing Atmospheric mass density...
Loading historical data...
Loading historical data...
Loading historical data...
Loading historical data...
Loading historical data...
Loading historical data...
Loading historical data...

Documentation

Showing up to 5 results
|